EHI
0 0 0 0 0 0 0 0 0 0 0 0 0 0 0 0 0 0 0 0 0 0 0 0 0 0 0 0 1 4 23 60 89 98 97 93 73 35 8 1 0 0 0 0
0 0 0 0 0 0 0 0 0 0 0 0 0 0 0 0 0 0 0 0 0 0 0 0 0 0 0 0 0 2 14 44 77 94 91 78 56 27 6 1 0 0 0 0
0 0 0 0 0 0 0 0 0 0 0 0 0 0 0 0 0 0 0 0 0 0 0 0 0 0 0 0 0 0 5 24 58 84 79 49 24 11 3 0 0 0 0 0
0 0 0 0 0 0 0 0 0 0 0 0 0 0 0 0 0 0 0 0 0 0 0 0 0 0 0 0 0 0 1 12 41 71 69 35 8 1 0 0 0 0 0 0
0 0 0 0 0 0 0 0 0 0 0 0 0 0 0 0 0 0 0 0 0 0 0 0 0 0 0 0 0 0 0 6 27 56 63 39 11 1 0 0 0 0 0 0
0 0 0 0 0 0 0 0 0 0 0 0 0 0 0 0 0 0 0 0 0 0 0 0 0 0 0 0 0 0 0 3 17 41 51 34 10 1 0 0 0 0 0 0
0 0 0 0 0 0 0 0 0 0 0 0 0 0 0 0 0 0 0 0 0 0 0 0 0 0 0 0 0 0 0 1 10 27 33 20 6 1 0 0 0 0 0 0
0 0 0 0 0 0 0 0 0 0 0 0 0 0 0 0 0 0 0 0 0 0 0 0 0 0 0 0 0 0 0 0 4 13 16 8 1 0 0 0 0 0 0 0
0 0 0 0 0 0 0 0 0 0 0 0 0 0 0 0 0 0 0 0 0 0 0 0 0 0 0 0 0 0 0 0 1 4 5 3 0 0 0 0 0 0 0 0
0 0 0 0 0 0 0 0 0 0 0 0 0 0 0 0 0 0 0 0 0 0 0 0 0 0 0 0 0 0 0 0 0 1 2 1 0 0 0 0 0 0 0 0
0 0 0 0 0 0 0 0 0 0 0 0 0 0 0 0 0 0 0 0 0 0 0 0 0 0 0 0 0 0 0 0 0 0 0 0 0 0 0 0 0 0 0 0
0 0 0 0 0 0 0 0 0 0 0 0 0 0 0 0 0 0 0 0 0 0 0 0 0 0 0 0 0 0 0 0 0 0 0 0 0 0 0 0 0 0 0 0
0 0 0 0 0 0 0 0 0 0 0 0 0 0 0 0 0 0 0 0 0 0 0 0 0 0 0 0 0 0 0 0 0 0 0 0 0 0 0 0 0 0 0 0
0 0 0 0 0 0 0 0 0 0 0 0 0 0 0 0 0 0 0 0 0 0 0 0 0 0 0 0 0 0 0 0 0 0 0 0 0 0 0 0 0 0 0 0
0 0 0 0 0 0 0 0 0 0 0 0 0 0 0 0 0 0 0 0 0 0 0 0 0 0 0 0 0 0 0 0 0 0 0 0 0 0 0 0 0 0 0 0
0 0 0 0 0 0 0 0 0 0 0 0 0 0 0 0 0 0 0 0 0 0 0 0 0 0 0 0 0 0 0 0 0 0 0 0 0 0 0 0 0 0 0 0
0 0 0 0 0 0 0 0 0 0 0 0 0 0 0 0 0 0 0 0 0 0 0 0 0 0 0 0 0 0 0 0 0 0 0 0 0 0 0 0 0 0 0 0
0 0 0 0 0 0 0 0 0 0 0 0 0 0 0 0 0 0 0 0 0 0 0 0 0 0 0 0 0 0 0 0 0 0 0 0 0 0 0 0 0 0 0 0
0 0 0 0 0 0 0 0 0 0 0 0 0 0 0 0 0 0 0 0 0 0 0 0 0 0 0 0 0 0 0 0 0 0 0 0 0 0 0 0 0 0 0 0
0 0 0 0 0 0 0 0 0 0 0 0 0 0 0 0 0 0 0 0 0 0 0 0 0 0 0 0 0 0 0 0 0 0 0 0 0 0 0 0 0 0 0 0
0 0 0 0 0 0 0 0 0 0 0 0 0 0 0 0 0 0 0 0 0 0 0 0 0 0 0 0 0 0 0 0 0 0 0 0 0 0 0 0 0 0 0 0
0 0 0 0 0 0 0 0 0 0 0 0 0 0 0 0 0 0 0 0 0 0 0 0 0 0 0 0 0 0 0 0 0 0 0 0 0 0 0 0 0 0 0 0
0 0 0 0 0 0 0 0 0 0 0 0 0 0 0 0 0 0 0 0 0 0 0 0 0 0 0 0 0 0 0 0 0 0 0 0 0 0 0 0 0 0 0 0
0 0 0 0 0 0 0 0 0 0 0 0 0 0 0 0 0 0 0 0 0 0 0 0 0 0 0 0 0 0 0 0 0 0 0 0 0 0 0 0 0 0 0 0
0 0 0 0 0 0 0 0 0 0 0 0 0 0 0 0 0 0 0 0 0 0 0 0 0 0 0 0 0 0 0 0 0 0 0 0 0 0 0 0 0 0 0 0
0 0 0 0 0 0 0 0 0 0 0 0 0 0 0 0 0 0 0 0 0 0 0 0 0 0 0 0 0 0 0 0 0 0 0 0 0 0 0 0 0 0 0 0
Wind_Speed
5 4 6 9 7 5 4 2 4 6 4 5 6 9 11 11 9 11 12 12 12 13 12 9 9 8 8 8 8 10 13 13 12 9 10 10 10 9 8 7 10 11 11 11
4 3 5 5 4 3 3 4 5 6 3 3 7 12 11 12 13 15 16 16 15 13 10 9 8 7 7 7 7 8 11 13 13 13 12 9 9 6 5 6 8 11 13 12
5 4 7 6 3 4 4 4 4 5 6 5 6 11 7 9 8 11 13 14 13 14 13 11 9 9 7 7 8 7 9 12 14 13 7 5 4 4 3 5 7 9 12 13
3 1 5 6 4 5 2 1 1 2 3 5 3 9 9 8 11 10 8 8 10 11 11 9 8 8 8 9 7 7 8 10 12 12 12 14 11 9 8 8 7 8 10 12
4 3 4 5 4 5 4 3 4 3 2 4 3 6 12 7 9 11 9 8 9 9 8 8 7 7 7 6 6 6 6 8 10 12 15 16 10 6 4 7 9 8 8 9
2 1 3 4 3 5 6 6 5 4 4 5 6 6 11 7 7 7 6 5 5 5 5 5 4 2 3 4 4 4 4 6 9 12 14 15 14 11 11 11 11 9 7 7
2 2 2 3 5 3 6 5 3 4 2 8 4 5 13 12 11 9 9 8 6 5 4 4 3 2 1 2 3 3 3 5 8 12 13 14 15 17 18 16 13 12 9 7
6 3 4 3 4 5 5 7 6 4 4 6 4 8 11 11 9 7 6 6 6 5 5 4 4 3 3 3 3 3 4 5 7 11 12 11 13 11 10 12 12 12 9 7
6 2 1 4 3 7 6 4 4 3 2 5 8 9 12 6 2 3 5 6 6 6 6 5 4 4 4 4 4 4 5 5 6 9 10 10 12 11 11 12 9 8 8 9
6 4 2 3 3 1 3 6 5 4 1 6 7 7 7 5 4 5 5 5 6 6 6 6 6 6 5 5 5 5 5 7 7 9 10 10 12 12 12 12 13 11 11 11
2 5 3 3 5 6 4 3 4 4 3 3 7 10 6 4 4 5 5 5 7 8 8 8 8 7 7 6 5 6 6 6 6 8 10 12 11 11 13 13 13 13 12 14
2 5 3 3 3 6 6 6 6 4 5 4 4 13 7 6 6 5 8 10 11 11 11 10 10 8 7 7 6 7 7 6 7 8 10 12 12 13 13 13 13 13 14 13
4 5 3 3 2 3 4 6 6 4 2 4 6 13 4 5 10 13 16 17 15 14 13 11 8 7 7 6 6 6 6 6 6 8 11 12 12 13 13 13 13 14 14 14
5 4 5 6 4 5 5 6 8 8 5 6 11 18 18 17 18 17 15 14 12 12 11 8 7 6 5 4 4 4 5 2 4 7 10 11 11 11 12 13 13 13 14 14
5 3 3 5 5 5 7 8 9 12 11 11 13 17 23 22 19 14 11 11 12 11 9 8 6 4 3 2 3 4 5 4 4 7 9 10 11 12 13 13 13 13 12 12
5 4 1 4 5 6 8 11 12 14 15 18 21 24 20 14 9 9 9 11 12 12 10 9 5 2 2 3 5 6 7 7 7 9 11 12 14 14 14 14 14 14 13 13
4 5 2 4 5 4 8 11 12 8 10 11 14 13 11 13 10 6 8 10 11 10 9 8 5 6 6 7 8 9 10 10 11 11 12 13 15 16 16 16 16 15 13 12
7 5 2 3 4 5 7 3 7 8 8 9 10 12 11 10 3 2 5 8 9 9 8 7 7 8 9 9 10 11 11 12 12 13 13 14 16 17 16 16 15 13 10 9
6 6 3 2 4 8 8 4 4 4 8 6 8 10 8 5 1 1 6 7 7 7 7 7 8 8 9 10 10 12 12 12 13 13 13 13 14 15 15 14 12 10 10 8
5 4 3 3 4 6 5 2 2 2 6 6 6 7 6 3 2 3 5 6 6 7 7 7 8 9 9 9 9 12 11 11 11 11 12 12 12 13 13 12 10 8 8 7
5 5 5 5 5 8 8 3 3 1 6 3 5 5 3 2 2 1 3 5 5 6 6 7 8 8 7 7 9 11 10 10 10 11 11 12 11 11 11 10 8 7 7 6
8 6 6 6 7 10 5 3 4 7 5 4 3 3 3 5 5 4 4 4 4 4 6 6 7 7 7 7 9 10 10 9 10 11 12 11 10 9 9 9 7 7 7 6
7 9 6 8 10 7 3 4 4 2 4 4 3 4 6 6 5 5 4 4 3 4 5 6 7 7 7 7 8 10 8 8 10 11 11 10 10 9 8 8 7 6 5 4
4 5 4 6 8 8 8 5 3 3 4 4 3 5 7 6 7 7 6 5 4 5 5 5 6 7 7 7 8 8 8 8 10 11 9 9 9 8 7 6 5 4 4 3
5 2 3 5 7 7 5 4 3 2 2 1 2 4 6 8 8 7 7 6 5 5 5 5 6 7 7 7 7 7 7 8 10 9 8 7 7 6 6 4 3 4 2 3
5 6 5 6 7 5 6 4 3 4 3 3 4 4 5 7 8 8 7 6 6 7 6 6 7 8 7 7 7 6 6 7 9 8 6 5 5 4 4 4 3 5 3 5
Wind_Direction
132 134 170 182 183 162 147 176 257 265 301 319 277 267 266 270 265 260 258 253 250 252 255 258 252 245 242 241 225 209 204 201 192 184 183 184 188 187 183 178 168 162 158 156
103 171 174 165 190 227 266 289 282 286 305 312 284 277 261 253 247 242 246 250 252 254 262 259 252 247 239 238 230 214 210 204 197 192 191 190 183 178 174 159 159 161 161 160
146 200 176 170 170 194 220 223 248 282 329 349 331 298 280 276 262 253 246 247 248 247 251 253 254 252 248 243 237 224 211 209 203 196 174 125 91 78 111 155 165 169 166 163
155 185 145 156 175 158 177 53 130 19 12 315 358 300 290 288 299 284 271 262 255 251 246 245 246 252 253 252 248 237 220 209 204 192 176 170 175 177 183 174 164 161 165 164
183 167 137 150 159 143 151 97 72 65 52 322 263 251 281 296 281 280 279 272 263 254 246 247 248 248 257 263 263 254 235 216 202 196 186 184 182 170 144 145 147 154 158 160
108 98 127 144 111 118 117 62 43 49 60 284 232 208 277 261 248 282 295 280 266 254 237 234 244 249 275 284 279 268 242 226 206 198 193 190 175 155 151 157 160 160 155 156
91 29 64 96 99 85 96 86 18 342 320 256 231 224 255 256 259 263 279 279 269 251 223 220 216 211 263 306 304 294 263 237 211 201 198 192 178 169 170 168 168 165 164 165
145 215 210 154 147 148 147 141 171 222 253 289 286 242 257 263 275 276 282 298 312 299 280 253 233 222 237 280 300 300 280 250 218 203 199 190 177 173 171 170 168 171 167 158
149 182 116 155 123 132 143 166 162 124 313 284 277 286 293 281 288 344 355 356 338 316 302 285 275 259 255 274 284 277 272 257 226 206 193 181 172 170 167 165 157 152 145 144
137 131 130 125 101 62 138 142 111 128 216 279 284 268 259 292 324 336 339 337 323 317 310 295 282 271 266 266 275 279 262 247 231 203 187 178 174 170 164 159 158 155 151 148
118 118 134 132 177 179 154 155 148 158 181 224 289 273 232 246 277 289 300 306 303 299 294 284 277 274 275 281 281 279 271 254 228 200 179 167 166 162 160 161 159 154 149 148
183 119 148 222 236 179 172 180 155 174 235 217 250 273 266 267 272 285 301 302 297 288 281 272 266 266 269 277 284 283 272 252 225 191 169 163 158 158 158 156 153 149 148 147
152 118 94 5 323 179 203 195 185 180 196 210 232 263 284 307 307 304 304 301 297 289 282 275 268 264 268 277 287 290 278 253 207 169 158 153 154 155 152 147 145 144 143 142
120 120 163 184 199 178 205 202 190 188 219 240 236 265 287 295 298 301 300 301 298 294 288 280 275 275 282 298 310 315 311 281 165 151 149 148 148 144 139 135 136 137 138 137
116 156 212 247 243 221 220 221 206 207 219 243 261 272 283 293 298 302 306 307 308 307 302 297 287 283 300 346 12 21 18 30 92 119 122 122 118 117 117 119 120 120 120 118
112 142 218 278 264 241 247 240 228 233 237 246 263 275 278 286 301 316 324 322 318 316 316 315 309 335 45 56 58 54 46 47 71 93 102 106 108 107 106 105 105 102 100 102
137 138 174 274 305 327 267 232 205 208 214 218 247 263 292 308 320 335 333 330 328 329 332 343 18 53 61 66 71 71 67 68 76 85 93 99 101 100 99 100 97 96 96 97
136 138 168 284 330 257 245 245 191 213 240 229 250 272 291 301 308 33 356 342 343 350 3 26 52 63 67 74 78 82 82 83 86 88 91 95 97 98 97 97 97 95 94 94
144 150 184 253 284 279 284 253 199 221 274 242 246 274 293 305 228 24 15 8 10 17 31 44 60 74 77 81 88 91 90 90 91 92 93 96 100 103 103 102 101 101 101 100
150 150 181 226 268 262 261 281 137 119 283 257 239 268 289 327 320 329 17 21 28 38 47 57 64 73 78 83 92 93 92 92 92 93 93 94 98 102 105 106 107 109 115 124
172 189 208 222 254 269 258 252 118 229 263 259 231 247 249 196 191 101 57 44 41 49 60 66 70 73 75 82 92 93 92 90 94 95 93 92 94 100 106 108 114 121 117 108
182 192 198 195 219 253 257 152 197 235 268 270 243 207 170 145 129 113 93 74 57 56 65 70 74 70 66 77 90 91 89 93 97 97 96 97 98 102 106 106 99 93 95 93
198 198 191 202 222 240 251 238 256 259 274 273 240 181 154 150 151 138 123 108 85 73 75 78 83 78 69 72 89 97 96 100 101 98 96 93 88 85 88 93 92 85 85 95
243 195 211 253 262 263 266 251 242 246 260 277 235 170 165 160 152 143 137 131 117 101 96 94 93 91 85 84 88 99 105 104 101 96 91 89 88 82 75 79 88 99 110 120
246 222 228 258 278 295 281 236 235 239 252 255 134 159 163 152 152 148 141 136 127 114 103 98 100 101 99 96 93 93 96 101 98 93 92 88 86 90 86 85 102 120 141 146
225 205 207 236 243 249 269 255 211 211 213 182 147 136 148 154 150 141 135 131 127 120 113 109 107 108 105 102 95 86 87 100 107 103 96 94 97 98 101 102 83 76 92 83